Terminal Aerodrome Forecast
Issued by NWS

Home | Current Version | Previous Version | Graphics & Text | Print | Product List | Glossary On
Versions: 1 2 3 4 5 6 7 8 9 10 11 12 13 14 15 16 17
000
FTUS43 KMPX 201127
TAFAXN
TAF
KAXN 201127Z 2012/2112 18009KT P6SM SKC
     FM201400 18013G19KT P6SM SKC
     FM201800 17019G27KT P6SM FEW250
     FM210300 17018G29KT P6SM BKN080
     FM211000 17015G23KT P6SM VCSH BKN025=

USA.gov is the U.S. government's official web portal to all federal, state and local government web resources and services.